Location: ???????
(60.4260°N, 46.9069°E)
Time: 08:00:05
(UTC+00:00)

SAR-Lupe-4 - Pass Details

Date: 30 March 2020
Orbit: 481 x 485 km, 98.2° (Epoch: 13 May)

Event Time Altitude Azimuth Distance (km) Brightness Sun altitude
Exits shadow 00:28:06 21° 203° (SSW) 1,154 5.0 -13.8°
Maximum altitude 00:30:05 38° 260° (W) 752 4.0 -13.6°
Drops below altitude 10° 00:33:29 10° 331° (NNW) 1,678 6.3 -13.3°
Sets 00:35:40 0° 339° (NNW) 2,563 7.4 -13.0°
